Weather History for Cartersville, GA

Change the Weather History Date:

Monday, November 28, 2011

  Actual Average Record
Temperature  
Mean Temperature 50 °F 47 °F  
Max Temperature 61 °F 59 °F 73 °F (2001)
Min Temperature 39 °F 35 °F 20 °F (2013)
Degree Days  
Heating Degree Days 15 18  
Month to date heating degree days 381  
Since 1 July heating degree days 573  
Moisture  
Dew Point 50 °F    
Average Humidity 90    
Maximum Humidity 100    
Minimum Humidity 79    
Precipitation  
Precipitation 0.99 in 0.16 in 2.26 in (1948)
Month to date precipitation 3.75  
Year to date precipitation 45.36  
Sea Level Pressure  
Sea Level Pressure 29.77 in    
Wind  
Wind Speed 6 mph (South)    
Max Wind Speed 13 mph    
Max Gust Speed 23 mph    
Visibility 6 miles    
Events Rain    
T = Trace of Precipitation, MM = Missing Value Source: NWS Daily Summary

Daily Weather History Graph

Daily Weather History Graph

Search for Another Location

Airport:

Trip Planner

Search our weather history database for the weather conditions in past years. The results will help you decide how hot, cold, wet, or windy it might be!

Date:

Astronomy

Nov. 28, 2011 Rise Set
Actual Time 7:24 AM EST 5:30 PM EST
Civil Twilight 6:56 AM EST 5:57 PM EST
Nautical Twilight 6:25 AM EST 6:28 PM EST
Astronomical Twilight 5:55 AM EST 6:58 PM EST
Moon 10:34 AM EST (11/28) 9:14 PM EST (11/28)
Length of Visible Light 11h 00m
Length of Day
10h 06m
Waxing Crescent, 15% of the Moon is Illuminated
Nov 28
Waxing Crescent
Dec 2
First Quarter
Dec 10
Full
Dec 17
Last Quarter
Dec 24
New

Hourly Weather History & Observations

Time (EST) Temp. Windchill Dew Point Humidity Pressure Visibility Wind Dir Wind Speed Gust Speed Precip Events Conditions
12:53 AM 57.9 °F - 57.0 °F 97% 29.82 in 4.0 mi Calm Calm - 0.10 in Rain Rain
1:53 AM 59.0 °F - 55.9 °F 90% 29.78 in 6.0 mi ESE 6.9 mph - 0.07 in Rain Rain
2:34 AM 59.0 °F - 57.2 °F 94% 29.81 in 5.0 mi SE 5.8 mph - 0.04 in Rain Rain
2:53 AM 57.9 °F - 57.0 °F 97% 29.78 in 8.0 mi SE 4.6 mph - 0.06 in Rain Light Rain
3:08 AM 57.2 °F - 57.2 °F 100% 29.80 in 8.0 mi ESE 5.8 mph - 0.00 in   Overcast
3:24 AM 57.2 °F - 57.2 °F 100% 29.78 in 4.0 mi ESE 4.6 mph - 0.01 in Rain Light Rain
3:53 AM 59.0 °F - 57.0 °F 93% 29.75 in 5.0 mi SE 4.6 mph - 0.02 in Rain Light Rain
4:02 AM 59.0 °F - 57.2 °F 94% 29.77 in 7.0 mi SSE 3.5 mph - 0.01 in Rain Light Rain
4:53 AM 60.1 °F - 59.0 °F 96% 29.72 in 8.0 mi SE 6.9 mph - 0.04 in   Overcast
5:45 AM 60.8 °F - 59.0 °F 94% 29.72 in 4.0 mi ESE 8.1 mph - 0.01 in Rain Light Rain
5:53 AM 61.0 °F - 59.0 °F 93% 29.70 in 5.0 mi SE 9.2 mph 18.4 mph 0.01 in Rain Light Rain
6:11 AM 60.8 °F - 59.0 °F 94% 29.73 in 2.5 mi SE 5.8 mph - 0.07 in Rain Rain
6:19 AM 60.8 °F - 59.0 °F 94% 29.72 in 3.0 mi SE 8.1 mph - 0.09 in Rain Rain
6:53 AM 61.0 °F - 60.1 °F 97% 29.70 in 5.0 mi SE 8.1 mph - 0.13 in Rain Light Rain
7:16 AM 60.8 °F - 60.8 °F 100% 29.73 in 4.0 mi SSE 6.9 mph - 0.06 in Rain Rain
7:42 AM 60.8 °F - 60.8 °F 100% 29.73 in 2.0 mi SSE 5.8 mph - 0.13 in Rain Rain
7:50 AM 60.8 °F - 60.8 °F 100% 29.73 in 2.5 mi South 5.8 mph - 0.14 in Rain Light Rain
7:53 AM 61.0 °F - 60.1 °F 97% 29.71 in 3.0 mi South 10.4 mph 23.0 mph 0.15 in Rain Light Rain
7:58 AM 60.8 °F - 59.0 °F 94% 29.73 in 2.5 mi South 11.5 mph 23.0 mph 0.01 in Rain Rain
8:06 AM 60.8 °F - 59.0 °F 94% 29.73 in 2.5 mi South 10.4 mph - 0.03 in Rain Rain
8:22 AM 60.8 °F - 59.0 °F 94% 29.72 in 4.0 mi Variable 4.6 mph - 0.06 in Rain Light Rain
8:34 AM 59.0 °F - 57.2 °F 94% 29.75 in 6.0 mi SSW 9.2 mph - 0.07 in Rain Light Rain
8:53 AM 59.0 °F - 57.0 °F 93% 29.70 in 4.0 mi Variable 5.8 mph - 0.11 in Rain Rain
9:53 AM 57.9 °F - 55.0 °F 90% 29.72 in 2.5 mi South 8.1 mph 16.1 mph 0.08 in Rain Rain
10:07 AM 57.2 °F - 55.4 °F 94% 29.75 in 4.0 mi South 10.4 mph 21.9 mph 0.03 in Rain Light Rain
10:44 AM 55.4 °F - 53.6 °F 94% 29.75 in 4.0 mi South 11.5 mph 18.4 mph 0.06 in Rain Light Rain
10:53 AM 55.0 °F - 53.1 °F 93% 29.73 in 4.0 mi South 10.4 mph 20.7 mph 0.07 in Rain Light Rain
11:19 AM 53.6 °F - 51.8 °F 94% 29.75 in 2.0 mi South 11.5 mph 17.3 mph 0.03 in Rain Rain
11:34 AM 53.6 °F - 51.8 °F 94% 29.75 in 2.5 mi South 9.2 mph 18.4 mph 0.05 in Rain Light Rain
11:42 AM 53.6 °F - 51.8 °F 94% 29.74 in 2.5 mi South 12.7 mph 17.3 mph 0.06 in Rain Light Rain
11:49 AM 53.6 °F - 50.0 °F 88% 29.75 in 5.0 mi South 8.1 mph 17.3 mph 0.06 in Rain Light Rain
11:53 AM 53.1 °F - 50.0 °F 89% 29.73 in 4.0 mi South 9.2 mph 17.3 mph 0.07 in Rain Light Rain
12:01 PM 53.6 °F - 51.8 °F 94% 29.74 in 2.0 mi South 5.8 mph 16.1 mph 0.03 in Rain Rain
12:05 PM 51.8 °F - 51.8 °F 100% 29.75 in 3.0 mi Variable 5.8 mph - 0.03 in Rain Light Rain
12:51 PM 51.8 °F - 48.2 °F 88% 29.73 in 10.0 mi South 9.2 mph - 0.05 in Rain Light Rain
12:53 PM 52.0 °F - 48.9 °F 89% 29.72 in 10.0 mi South 5.8 mph - 0.05 in Rain Light Rain
1:07 PM 51.8 °F - 48.2 °F 88% 29.74 in 9.0 mi South 8.1 mph 17.3 mph 0.01 in Rain Light Rain
1:19 PM 51.8 °F - 48.2 °F 88% 29.74 in 10.0 mi South 11.5 mph 16.1 mph 0.02 in Rain Light Rain
1:50 PM 50.0 °F - 46.4 °F 87% 29.74 in 10.0 mi South 9.2 mph - 0.03 in Rain Light Rain
1:53 PM 48.9 °F - 46.0 °F 90% 29.73 in 10.0 mi South 10.4 mph - 0.03 in Rain Light Rain
2:07 PM 48.2 °F - 46.4 °F 93% 29.75 in 10.0 mi South 8.1 mph - 0.00 in   Overcast
2:53 PM 48.0 °F - 44.1 °F 86% 29.74 in 10.0 mi South 6.9 mph - 0.00 in   Overcast
3:53 PM 46.0 °F 42.5 °F 41.0 °F 83% 29.77 in 10.0 mi South 6.9 mph - N/A   Overcast
4:53 PM 46.0 °F 43.1 °F 39.9 °F 79% 29.79 in 10.0 mi SSW 5.8 mph - 0.00 in   Overcast
5:21 PM 44.6 °F 42.2 °F 39.2 °F 81% 29.81 in 10.0 mi SSW 4.6 mph - N/A   Overcast
5:53 PM 44.1 °F 41.5 °F 37.9 °F 79% 29.81 in 10.0 mi Variable 4.6 mph - N/A   Overcast
6:26 PM 42.8 °F - 37.4 °F 81% 29.83 in 10.0 mi Calm Calm - N/A   Overcast
6:53 PM 42.1 °F 39.2 °F 37.9 °F 85% 29.82 in 10.0 mi Variable 4.6 mph - N/A   Overcast
7:26 PM 41.0 °F 37.1 °F 35.6 °F 81% 29.84 in 10.0 mi Variable 5.8 mph - 0.00 in   Mostly Cloudy
7:53 PM 39.9 °F 35.1 °F 34.0 °F 79% 29.83 in 10.0 mi Variable 6.9 mph - 0.00 in   Partly Cloudy
8:20 PM 39.2 °F 35.9 °F 35.6 °F 87% 29.86 in 10.0 mi Variable 4.6 mph - N/A   Mostly Cloudy
8:53 PM 39.9 °F 35.8 °F 34.0 °F 79% 29.85 in 10.0 mi SSW 5.8 mph - N/A   Overcast
9:18 PM 39.2 °F 35.9 °F 33.8 °F 81% 29.87 in 10.0 mi South 4.6 mph - N/A   Overcast
9:53 PM 39.9 °F - 35.1 °F 83% 29.85 in 10.0 mi Calm Calm - N/A   Overcast
10:48 PM 39.2 °F 37.0 °F 33.8 °F 81% 29.86 in 10.0 mi Variable 3.5 mph - N/A   Overcast
10:53 PM 39.9 °F 35.8 °F 34.0 °F 79% 29.85 in 10.0 mi SSW 5.8 mph - N/A   Overcast
11:25 PM 39.2 °F 35.0 °F 33.8 °F 81% 29.86 in 10.0 mi Variable 5.8 mph - 0.00 in Rain Light Rain